Location: *
(51.4660°N, 0.3360°W)
Time: 03:08:34
(UTC+00:00)

Meteor 2-5 Rocket - Pass Details

Date: 19 September 2019
Orbit: 834 x 911 km, 81.2° (Epoch: 16 October)

Event Time Altitude Azimuth Distance (km) Brightness Sun altitude
Rises 19:40:44 0° 348° (NNW) 3,480 7.4 -15.0°
Reaches altitude 10° 19:43:11 10° 351° (N) 2,549 6.6 -15.3°
Maximum altitude 19:48:59 70° 75° (ENE) 951 3.8 -16.2°
Enters shadow 19:53:45 16° 157° (SSE) 2,172 5.4 -16.8°
